Location: Cosy Dell
(34.2789°N, 117.4537°W)
Time: 00:49:49
(UTC+00:00)

IGS 5A - Pass Details

Date: 14 July 2020
Orbit: 582 x 589 km, 97.6° (Epoch: 08 August)

Event Time Altitude Azimuth Distance (km) Brightness Sun altitude
Exits shadow 05:33:00 40° 244° (WSW) 868 4.3 -24.6°
Maximum altitude 05:33:26 42° 261° (W) 847 4.4 -24.7°
Drops below altitude 10° 05:37:22 10° 333° (NNW) 1,911 7.1 -25.2°
Sets 05:39:38 0° 340° (NNW) 2,814 8.2 -25.4°
